CPA156 YBBN-VHHH

Flight info

Callsign CPA156
Flight time 8h 17m
Altitude 36000
Route BIXAD Q67 UPOLO DCT MEMOS B473 DAO W8 MCT W11 MIA W16 AVMUP A461 NOMAN V533 BETTY
Aircraft A346/H-SDE2E3FGHIJ3J4J5M1RWXY/LB1D1

Departure

Time 2026-05-04 12:16
Airport Brisbane International Airport (YBBN)

Arrival

Time 2026-05-04 20:34
Airport Hong Kong International Airport (VHHH)
Time Latitude Longitude Altitude Speed Heading
2026-05-04 11:35 -27.40470 153.11065 26 ft 0 kts 297°
2026-05-04 12:07 -27.40477 153.11081 26 ft 4 kts 295°
2026-05-04 12:07 -27.40490 153.11107 32 ft 4 kts 301°
2026-05-04 12:07 -27.40504 153.11133 32 ft 4 kts 301°
2026-05-04 12:08 -27.40516 153.11156 32 ft 4 kts 301°
2026-05-04 12:08 -27.40529 153.11179 32 ft 3 kts 302°
2026-05-04 12:08 -27.40530 153.11182 32 ft 0 kts 302°
2026-05-04 12:11 -27.40524 153.11171 26 ft 3 kts 302°
2026-05-04 12:12 -27.40508 153.11158 30 ft 3 kts 344°
2026-05-04 12:12 -27.40481 153.11162 29 ft 5 kts 13°
2026-05-04 12:12 -27.40440 153.11178 29 ft 7 kts 27°
2026-05-04 12:12 -27.40391 153.11208 30 ft 9 kts 27°
2026-05-04 12:13 -27.40330 153.11244 30 ft 11 kts 28°
2026-05-04 12:14 -27.40321 153.11693 27 ft 10 kts 102°
2026-05-04 12:15 -27.40321 153.11771 28 ft 9 kts 78°
2026-05-04 12:15 -27.40276 153.11824 28 ft 11 kts 27°
2026-05-04 12:15 -27.40121 153.11913 27 ft 54 kts 27°
2026-05-04 12:15 -27.39579 153.12223 29 ft 118 kts 27°
2026-05-04 12:16 -27.38693 153.12729 28 ft 171 kts 27°
2026-05-04 12:16 -27.37536 153.13392 201 ft 199 kts 28°
2026-05-04 12:16 -27.36305 153.14120 830 ft 200 kts 33°
2026-05-04 12:16 -27.35254 153.15140 1541 ft 197 kts 49°
2026-05-04 12:17 -27.34383 153.16273 2234 ft 191 kts 51°
2026-05-04 12:17 -27.33522 153.17402 2758 ft 190 kts 51°
2026-05-04 12:17 -27.32651 153.18527 3220 ft 192 kts 50°
2026-05-04 12:17 -27.31739 153.19695 3509 ft 206 kts 50°
2026-05-04 12:18 -27.30755 153.20947 3810 ft 221 kts 50°
2026-05-04 12:18 -27.29693 153.22290 4109 ft 238 kts 47°
2026-05-04 12:18 -27.28286 153.23384 4390 ft 258 kts 19°
2026-05-04 12:18 -27.26456 153.23650 4806 ft 272 kts
2026-05-04 12:19 -27.24549 153.23652 5430 ft 276 kts
2026-05-04 12:19 -27.22612 153.23654 6167 ft 278 kts
2026-05-04 12:19 -27.20698 153.23665 6876 ft 279 kts
2026-05-04 12:19 -27.18753 153.23686 7583 ft 280 kts
2026-05-04 12:20 -27.16773 153.23713 8310 ft 281 kts
2026-05-04 12:20 -27.14834 153.23739 8995 ft 283 kts
2026-05-04 12:20 -27.12857 153.23766 9668 ft 286 kts 360°
2026-05-04 12:20 -27.10860 153.23794 10273 ft 289 kts 359°
2026-05-04 12:21 -27.08810 153.23823 10606 ft 301 kts 359°
2026-05-04 12:21 -27.06662 153.23852 10874 ft 316 kts 359°
2026-05-04 12:21 -27.04414 153.23884 11118 ft 330 kts 359°
2026-05-04 12:21 -27.02066 153.23919 11379 ft 344 kts 359°
2026-05-04 12:22 -26.99624 153.23969 11630 ft 358 kts 359°
2026-05-04 12:22 -26.97086 153.24026 11884 ft 372 kts 359°
2026-05-04 12:22 -26.94465 153.24086 12289 ft 379 kts 359°
2026-05-04 12:22 -26.91818 153.24146 12872 ft 382 kts 359°
2026-05-04 12:23 -26.89155 153.24207 13475 ft 384 kts 359°
2026-05-04 12:23 -26.86477 153.24266 14028 ft 386 kts 359°
2026-05-04 12:23 -26.83776 153.24325 14510 ft 389 kts 358°
2026-05-04 12:23 -26.81097 153.24383 14994 ft 392 kts 358°
2026-05-04 12:24 -26.78324 153.24443 15477 ft 395 kts 358°
2026-05-04 12:24 -26.75611 153.24502 15966 ft 397 kts 358°
2026-05-04 12:24 -26.72835 153.24557 16443 ft 399 kts 356°
2026-05-04 12:24 -26.70067 153.24394 16911 ft 399 kts 350°
2026-05-04 12:25 -26.67318 153.23905 17390 ft 399 kts 344°
2026-05-04 12:25 -26.64627 153.23107 17873 ft 400 kts 340°
2026-05-04 12:25 -26.61961 153.22195 18362 ft 401 kts 339°
2026-05-04 12:25 -26.59288 153.21263 18790 ft 403 kts 339°
2026-05-04 12:26 -26.56603 153.20327 19200 ft 405 kts 339°
2026-05-04 12:26 -26.53901 153.19387 19604 ft 407 kts 339°
2026-05-04 12:26 -26.51188 153.18446 20012 ft 409 kts 339°
2026-05-04 12:26 -26.48454 153.17499 20424 ft 411 kts 339°
2026-05-04 12:27 -26.45718 153.16553 20838 ft 413 kts 339°
2026-05-04 12:27 -26.42965 153.15602 21252 ft 415 kts 339°
2026-05-04 12:27 -26.40233 153.14659 21655 ft 417 kts 338°
2026-05-04 12:27 -26.37455 153.13700 22059 ft 419 kts 338°
2026-05-04 12:28 -26.34659 153.12737 22469 ft 421 kts 338°
2026-05-04 12:28 -26.31858 153.11754 22869 ft 421 kts 336°
2026-05-04 12:28 -26.29136 153.10536 23255 ft 420 kts 331°
2026-05-04 12:28 -26.26540 153.09032 23634 ft 420 kts 326°
2026-05-04 12:29 -26.24093 153.07262 23926 ft 420 kts 321°
2026-05-04 12:29 -26.21716 153.05348 24240 ft 421 kts 320°
2026-05-04 12:29 -26.19371 153.03434 24557 ft 423 kts 320°
2026-05-04 12:29 -26.16989 153.01485 24878 ft 425 kts 320°
2026-05-04 12:30 -26.14595 152.99526 25198 ft 427 kts 320°
2026-05-04 12:30 -26.12194 152.97564 25518 ft 429 kts 320°
2026-05-04 12:30 -26.09778 152.95598 25821 ft 431 kts 320°
2026-05-04 12:30 -26.07348 152.93643 26135 ft 433 kts 320°
2026-05-04 12:31 -26.04892 152.91673 26439 ft 435 kts 320°
2026-05-04 12:31 -26.02432 152.89701 26731 ft 437 kts 320°
2026-05-04 12:31 -25.99990 152.87744 27038 ft 439 kts 320°
2026-05-04 12:31 -25.97504 152.85752 27328 ft 441 kts 320°
2026-05-04 12:32 -25.95009 152.83754 27613 ft 443 kts 320°
2026-05-04 12:32 -25.89980 152.79725 28224 ft 445 kts 320°
2026-05-04 12:32 -25.87465 152.77713 28629 ft 444 kts 320°
2026-05-04 12:33 -25.84963 152.75714 29091 ft 442 kts 320°
2026-05-04 12:33 -25.82467 152.73721 29535 ft 441 kts 320°
2026-05-04 12:33 -25.79976 152.71731 29940 ft 440 kts 320°
2026-05-04 12:33 -25.77491 152.69746 30326 ft 439 kts 320°
2026-05-04 12:34 -25.75039 152.67790 30671 ft 437 kts 320°
2026-05-04 12:34 -25.72578 152.65827 31060 ft 435 kts 319°
2026-05-04 12:34 -25.70122 152.63870 31469 ft 432 kts 319°
2026-05-04 12:34 -25.67688 152.61931 31881 ft 430 kts 319°
2026-05-04 12:35 -25.65267 152.60003 32280 ft 427 kts 319°
2026-05-04 12:35 -25.62856 152.58084 32683 ft 424 kts 319°
2026-05-04 12:35 -25.60470 152.56185 33056 ft 422 kts 319°
2026-05-04 12:35 -25.58087 152.54289 33427 ft 420 kts 319°
2026-05-04 12:36 -25.55710 152.52399 33752 ft 419 kts 319°
2026-05-04 12:36 -25.53371 152.50538 34091 ft 417 kts 319°
2026-05-04 12:36 -25.51020 152.48671 34409 ft 415 kts 319°
2026-05-04 12:36 -25.48682 152.46815 34678 ft 414 kts 319°
2026-05-04 12:37 -25.46336 152.44954 34910 ft 413 kts 319°
2026-05-04 12:37 -25.43994 152.43096 35122 ft 414 kts 318°
2026-05-04 12:37 -25.41654 152.41240 35331 ft 414 kts 318°
2026-05-04 12:37 -25.39309 152.39382 35542 ft 414 kts 318°
2026-05-04 12:38 -25.36965 152.37526 35746 ft 414 kts 318°
2026-05-04 12:38 -25.34618 152.35667 35952 ft 414 kts 318°
2026-05-04 12:38 -25.32269 152.33809 36092 ft 414 kts 318°
2026-05-04 12:39 -25.27580 152.30101 36110 ft 414 kts 318°
2026-05-04 12:39 -25.22879 152.26385 36104 ft 416 kts 318°
2026-05-04 12:40 -25.18195 152.22689 36109 ft 416 kts 318°
2026-05-04 12:40 -25.13478 152.18971 36111 ft 416 kts 318°
2026-05-04 12:41 -25.08767 152.15260 36112 ft 416 kts 318°
2026-05-04 12:41 -25.04050 152.11549 36111 ft 416 kts 318°
2026-05-04 12:42 -24.99326 152.07845 36108 ft 416 kts 318°
2026-05-04 12:42 -24.95400 152.04773 36109 ft 416 kts 318°
2026-05-04 12:43 -24.90671 152.01074 36108 ft 416 kts 318°
2026-05-04 12:43 -24.85938 151.97374 36109 ft 416 kts 318°
2026-05-04 12:44 -24.81210 151.93682 36111 ft 416 kts 318°
2026-05-04 12:44 -24.76488 151.89996 36109 ft 416 kts 319°
2026-05-04 12:45 -24.71794 151.86338 36108 ft 416 kts 319°
2026-05-04 12:45 -24.67069 151.82658 36108 ft 416 kts 319°
2026-05-04 12:46 -24.62339 151.78979 36111 ft 416 kts 319°
2026-05-04 12:46 -24.57604 151.75297 36097 ft 417 kts 319°
2026-05-04 12:47 -24.52859 151.71613 36103 ft 418 kts 319°
2026-05-04 12:47 -24.48112 151.67929 36106 ft 418 kts 319°
2026-05-04 12:48 -24.43355 151.64243 36104 ft 418 kts 319°
2026-05-04 12:48 -24.38637 151.60589 36104 ft 417 kts 319°
2026-05-04 12:49 -24.33891 151.56917 36104 ft 417 kts 319°
2026-05-04 12:49 -24.29149 151.53252 36103 ft 417 kts 319°
2026-05-04 12:50 -24.24397 151.49581 36100 ft 419 kts 319°
2026-05-04 12:50 -24.19626 151.45900 36097 ft 419 kts 319°
2026-05-04 12:51 -24.14874 151.42237 36097 ft 420 kts 319°
2026-05-04 12:51 -24.10095 151.38558 36102 ft 419 kts 319°
2026-05-04 12:52 -24.05323 151.34886 36092 ft 419 kts 319°
2026-05-04 12:52 -24.00549 151.31215 36091 ft 418 kts 319°
2026-05-04 12:53 -23.95782 151.27554 36098 ft 418 kts 319°
2026-05-04 12:53 -23.91011 151.23892 36085 ft 420 kts 319°
2026-05-04 12:54 -23.86200 151.20303 36084 ft 422 kts 322°
2026-05-04 12:54 -23.81122 151.17001 36088 ft 424 kts 323°
2026-05-04 12:55 -23.76036 151.13724 36086 ft 424 kts 323°
2026-05-04 12:55 -23.70952 151.10455 36086 ft 424 kts 323°
2026-05-04 12:56 -23.65854 151.07183 36086 ft 424 kts 323°
2026-05-04 12:56 -23.60762 151.03917 36083 ft 426 kts 323°
2026-05-04 12:57 -23.55654 151.00645 36085 ft 425 kts 323°
2026-05-04 12:57 -23.50571 150.97395 36086 ft 425 kts 323°
2026-05-04 12:58 -23.45464 150.94131 36084 ft 425 kts 323°
2026-05-04 12:58 -23.40353 150.90868 36084 ft 425 kts 323°
2026-05-04 12:59 -23.35241 150.87607 36084 ft 425 kts 323°
2026-05-04 12:59 -23.30135 150.84352 36068 ft 425 kts 323°
2026-05-04 13:00 -23.25009 150.81086 36079 ft 427 kts 323°
2026-05-04 13:00 -23.19876 150.77821 36083 ft 427 kts 323°
2026-05-04 13:01 -23.14742 150.74558 36086 ft 427 kts 323°
2026-05-04 13:01 -23.09614 150.71301 36085 ft 426 kts 323°
2026-05-04 13:02 -23.04520 150.68069 36081 ft 426 kts 323°
2026-05-04 13:02 -22.99394 150.64819 36082 ft 426 kts 323°
2026-05-04 13:03 -22.94260 150.61566 36078 ft 428 kts 323°
2026-05-04 13:03 -22.89114 150.58312 36080 ft 428 kts 323°
2026-05-04 13:04 -22.83957 150.55048 36083 ft 429 kts 323°
2026-05-04 13:04 -22.78795 150.51788 36082 ft 428 kts 323°
2026-05-04 13:05 -22.73669 150.48554 36082 ft 428 kts 323°
2026-05-04 13:05 -22.68514 150.45304 36083 ft 428 kts 324°
2026-05-04 13:06 -22.63364 150.42057 36074 ft 428 kts 324°
2026-05-04 13:06 -22.58201 150.38807 36080 ft 429 kts 324°
2026-05-04 13:07 -22.53037 150.35559 36076 ft 429 kts 324°
2026-05-04 13:07 -22.47868 150.32311 36074 ft 429 kts 324°
2026-05-04 13:08 -22.42703 150.29069 36076 ft 429 kts 324°
2026-05-04 13:08 -22.37529 150.25823 36071 ft 429 kts 324°
2026-05-04 13:09 -22.32360 150.22581 36057 ft 430 kts 324°
2026-05-04 13:09 -22.27173 150.19332 36069 ft 431 kts 324°
2026-05-04 13:10 -22.22033 150.16013 36073 ft 430 kts 323°
2026-05-04 13:10 -22.16951 150.12680 36073 ft 430 kts 323°
2026-05-04 13:11 -22.11834 150.09331 36073 ft 430 kts 323°
2026-05-04 13:11 -22.06714 150.05987 36072 ft 430 kts 323°
2026-05-04 13:12 -22.01589 150.02644 36069 ft 430 kts 323°
2026-05-04 13:12 -21.96464 149.99304 36072 ft 431 kts 323°
2026-05-04 13:13 -21.91361 149.95982 36064 ft 431 kts 323°
2026-05-04 13:13 -21.86223 149.92642 36067 ft 431 kts 323°
2026-05-04 13:14 -21.81082 149.89301 36066 ft 431 kts 323°
2026-05-04 13:14 -21.75943 149.85965 36064 ft 430 kts 323°
2026-05-04 13:15 -21.70809 149.82635 36067 ft 430 kts 323°
2026-05-04 13:15 -21.65675 149.79307 36066 ft 430 kts 323°
2026-05-04 13:16 -21.60544 149.75984 36066 ft 430 kts 323°
2026-05-04 13:16 -21.55404 149.72659 36063 ft 430 kts 323°
2026-05-04 13:17 -21.50298 149.69358 36071 ft 430 kts 323°
2026-05-04 13:17 -21.45164 149.66042 36065 ft 430 kts 323°
2026-05-04 13:18 -21.40025 149.62725 36068 ft 430 kts 323°
2026-05-04 13:18 -21.34893 149.59416 36051 ft 430 kts 323°
2026-05-04 13:19 -21.29754 149.56103 36072 ft 430 kts 323°
2026-05-04 13:19 -21.24642 149.52812 36075 ft 430 kts 323°
2026-05-04 13:20 -21.19504 149.49508 36072 ft 430 kts 323°
2026-05-04 13:20 -21.14360 149.46201 36071 ft 430 kts 323°
2026-05-04 13:21 -21.09217 149.42899 36061 ft 430 kts 323°
2026-05-04 13:21 -21.04078 149.39601 36066 ft 430 kts 324°
2026-05-04 13:22 -20.98928 149.36299 36061 ft 432 kts 324°
2026-05-04 13:22 -20.93789 149.33006 36070 ft 433 kts 324°
2026-05-04 13:23 -20.88612 149.29692 36063 ft 433 kts 324°
2026-05-04 13:23 -20.83444 149.26387 36071 ft 433 kts 324°
2026-05-04 13:24 -20.78271 149.23081 36065 ft 433 kts 324°
2026-05-04 13:24 -20.73097 149.19777 36060 ft 433 kts 324°
2026-05-04 13:25 -20.65328 149.14821 36061 ft 434 kts 324°
2026-05-04 13:25 -20.60140 149.11514 36067 ft 434 kts 324°
2026-05-04 13:26 -20.54955 149.08212 36062 ft 434 kts 324°
2026-05-04 13:26 -20.49800 149.04931 36061 ft 434 kts 324°
2026-05-04 13:27 -20.44605 149.01627 36063 ft 433 kts 324°
2026-05-04 13:27 -20.39425 148.98337 36061 ft 433 kts 324°
2026-05-04 13:28 -20.34379 148.94848 36082 ft 430 kts 320°
2026-05-04 13:28 -20.29681 148.90978 36085 ft 429 kts 317°
2026-05-04 13:29 -20.24996 148.87027 36082 ft 429 kts 317°
2026-05-04 13:29 -20.20320 148.83080 36077 ft 429 kts 317°
2026-05-04 13:30 -20.15640 148.79130 36068 ft 429 kts 317°
2026-05-04 13:30 -20.10963 148.75183 36062 ft 429 kts 317°
2026-05-04 13:31 -20.07083 148.71909 36057 ft 428 kts 317°
2026-05-04 13:31 -20.02416 148.67975 36040 ft 428 kts 317°
2026-05-04 13:32 -19.97743 148.64039 36050 ft 429 kts 317°
2026-05-04 13:32 -19.93083 148.60117 36053 ft 429 kts 317°
2026-05-04 13:33 -19.88391 148.56171 36053 ft 429 kts 317°
2026-05-04 13:33 -19.83703 148.52231 36054 ft 429 kts 317°
2026-05-04 13:34 -19.79018 148.48298 36054 ft 429 kts 317°
2026-05-04 13:34 -19.74328 148.44362 36049 ft 429 kts 317°
2026-05-04 13:35 -19.67299 148.38470 36037 ft 429 kts 317°
2026-05-04 13:36 -19.62624 148.34554 36047 ft 431 kts 317°
2026-05-04 13:36 -19.57912 148.30611 36047 ft 431 kts 317°
2026-05-04 13:37 -19.53198 148.26670 36048 ft 431 kts 317°
2026-05-04 13:37 -19.48485 148.22732 36049 ft 431 kts 317°
2026-05-04 13:38 -19.43779 148.18803 36049 ft 430 kts 317°
2026-05-04 13:38 -19.39108 148.14906 36045 ft 429 kts 317°
2026-05-04 13:39 -19.34409 148.10989 36049 ft 429 kts 317°
2026-05-04 13:39 -19.29697 148.07061 36040 ft 432 kts 318°
2026-05-04 13:40 -19.24964 148.03122 36046 ft 432 kts 318°
2026-05-04 13:40 -19.20217 147.99175 36056 ft 432 kts 318°
2026-05-04 13:41 -19.15487 147.95244 36042 ft 432 kts 318°
2026-05-04 13:41 -19.10759 147.91317 36050 ft 432 kts 318°
2026-05-04 13:42 -19.03687 147.85449 36043 ft 432 kts 318°
2026-05-04 13:42 -18.98964 147.81534 36037 ft 432 kts 318°
2026-05-04 13:43 -18.94225 147.77607 36045 ft 433 kts 318°
2026-05-04 13:43 -18.89478 147.73679 36044 ft 433 kts 318°
2026-05-04 13:44 -18.84735 147.69756 36047 ft 433 kts 318°
2026-05-04 13:44 -18.80007 147.65849 36047 ft 433 kts 318°
2026-05-04 13:45 -18.75264 147.61930 36041 ft 433 kts 318°
2026-05-04 13:45 -18.70515 147.58011 36046 ft 433 kts 318°
2026-05-04 13:46 -18.65767 147.54095 36043 ft 433 kts 318°
2026-05-04 13:46 -18.61018 147.50181 36035 ft 434 kts 319°
2026-05-04 13:47 -18.56259 147.46262 36043 ft 434 kts 319°
2026-05-04 13:47 -18.51493 147.42341 36045 ft 434 kts 319°
2026-05-04 13:48 -18.46727 147.38422 36043 ft 434 kts 319°
2026-05-04 13:48 -18.41965 147.34507 36045 ft 434 kts 319°
2026-05-04 13:49 -18.37201 147.30596 36042 ft 434 kts 319°
2026-05-04 13:49 -18.32462 147.26709 36042 ft 434 kts 319°
2026-05-04 13:50 -18.27698 147.22802 36045 ft 434 kts 319°
2026-05-04 13:50 -18.22932 147.18898 36041 ft 434 kts 319°
2026-05-04 13:51 -18.18169 147.14998 36044 ft 434 kts 319°
2026-05-04 13:51 -18.13398 147.11094 36042 ft 434 kts 319°
2026-05-04 13:52 -18.06252 147.05251 36041 ft 433 kts 319°
2026-05-04 13:53 -18.01483 147.01357 36043 ft 433 kts 319°
2026-05-04 13:53 -17.96750 146.97494 36041 ft 433 kts 319°
2026-05-04 13:54 -17.89589 146.91653 36041 ft 434 kts 319°
2026-05-04 13:55 -17.82445 146.85834 36043 ft 435 kts 319°
2026-05-04 13:55 -17.75271 146.79997 36040 ft 434 kts 319°
2026-05-04 13:56 -17.70484 146.76111 36040 ft 434 kts 319°
2026-05-04 13:57 -17.63313 146.70293 36042 ft 434 kts 319°
2026-05-04 13:58 -17.53728 146.62523 36041 ft 436 kts 320°
2026-05-04 13:58 -17.46552 146.56714 36043 ft 436 kts 320°
2026-05-04 13:59 -17.41741 146.52823 36043 ft 436 kts 320°
2026-05-04 14:00 -17.34527 146.46992 36043 ft 436 kts 320°
2026-05-04 14:00 -17.27322 146.41174 36031 ft 436 kts 320°
2026-05-04 14:01 -17.22497 146.37280 36038 ft 439 kts 320°
2026-05-04 14:02 -17.15264 146.31452 36045 ft 439 kts 320°
2026-05-04 14:02 -17.10423 146.27552 36043 ft 438 kts 320°
2026-05-04 14:03 -17.05590 146.23664 36042 ft 438 kts 320°
2026-05-04 14:03 -17.00758 146.19779 36046 ft 438 kts 320°
2026-05-04 14:04 -16.93499 146.13946 36041 ft 438 kts 320°
2026-05-04 14:04 -16.88650 146.10051 36034 ft 445 kts 320°
2026-05-04 14:05 -16.81272 146.04133 36042 ft 446 kts 320°
2026-05-04 14:06 -16.76347 146.00185 36040 ft 446 kts 320°
2026-05-04 14:06 -16.71488 145.96147 36039 ft 445 kts 317°
2026-05-04 14:07 -16.67036 145.91719 36040 ft 444 kts 312°
2026-05-04 14:07 -16.62857 145.86964 36041 ft 443 kts 311°
2026-05-04 14:08 -16.58688 145.82194 36044 ft 443 kts 311°
2026-05-04 14:08 -16.54520 145.77421 36040 ft 445 kts 311°
2026-05-04 14:09 -16.48281 145.70283 36038 ft 445 kts 311°
2026-05-04 14:10 -16.42015 145.63122 36043 ft 445 kts 311°
2026-05-04 14:10 -16.37836 145.58349 36044 ft 445 kts 311°
2026-05-04 14:11 -16.33653 145.53574 36045 ft 445 kts 311°
2026-05-04 14:11 -16.27388 145.46428 36045 ft 445 kts 311°
2026-05-04 14:12 -16.23209 145.41667 36044 ft 445 kts 311°
2026-05-04 14:13 -16.16917 145.34506 36048 ft 450 kts 311°
2026-05-04 14:13 -16.12690 145.29696 36047 ft 450 kts 311°
2026-05-04 14:14 -16.08458 145.24884 36054 ft 450 kts 311°
2026-05-04 14:14 -16.02122 145.17687 36051 ft 449 kts 311°
2026-05-04 14:15 -15.93706 145.08139 36043 ft 449 kts 311°
2026-05-04 14:16 -15.87358 145.00947 36042 ft 449 kts 311°
2026-05-04 14:17 -15.81025 144.93783 36036 ft 446 kts 311°
2026-05-04 14:18 -15.74725 144.86655 36036 ft 445 kts 311°
2026-05-04 14:19 -15.67045 144.77978 36030 ft 445 kts 311°
2026-05-04 14:19 -15.62164 144.72468 36027 ft 445 kts 311°
2026-05-04 14:20 -15.58651 144.68507 36026 ft 445 kts 311°
2026-05-04 14:20 -15.54474 144.63799 36022 ft 445 kts 311°
2026-05-04 14:21 -15.48175 144.56703 36013 ft 445 kts 311°
2026-05-04 14:21 -15.43985 144.51984 36017 ft 444 kts 311°
2026-05-04 14:22 -15.39792 144.47271 36016 ft 444 kts 312°
2026-05-04 14:22 -15.35593 144.42553 36016 ft 445 kts 312°
2026-05-04 14:23 -15.29287 144.35473 36015 ft 445 kts 312°
2026-05-04 14:24 -15.25110 144.30786 36013 ft 445 kts 312°
2026-05-04 14:24 -15.20910 144.26075 36012 ft 445 kts 312°
2026-05-04 14:25 -15.16702 144.21360 36014 ft 446 kts 312°
2026-05-04 14:25 -15.10375 144.14274 36002 ft 446 kts 312°
2026-05-04 14:26 -15.06160 144.09557 36010 ft 445 kts 312°
2026-05-04 14:26 -15.01949 144.04849 36010 ft 445 kts 312°
2026-05-04 14:27 -14.97636 144.00248 36012 ft 446 kts 316°
2026-05-04 14:27 -14.93042 143.95991 36014 ft 446 kts 317°
2026-05-04 14:28 -14.88389 143.91729 36012 ft 446 kts 317°
2026-05-04 14:28 -14.83737 143.87472 36014 ft 446 kts 317°
2026-05-04 14:29 -14.74424 143.78963 36012 ft 446 kts 317°
2026-05-04 14:30 -14.69766 143.74712 36015 ft 446 kts 317°
2026-05-04 14:31 -14.62785 143.68345 36016 ft 447 kts 317°
2026-05-04 14:32 -14.53440 143.59829 36014 ft 448 kts 317°
2026-05-04 14:32 -14.48759 143.55567 36012 ft 448 kts 317°
2026-05-04 14:33 -14.44114 143.51342 36015 ft 448 kts 317°
2026-05-04 14:33 -14.39434 143.47085 36013 ft 449 kts 317°
2026-05-04 14:34 -14.34741 143.42820 36016 ft 449 kts 317°
2026-05-04 14:34 -14.30042 143.38553 36016 ft 449 kts 317°
2026-05-04 14:35 -14.25341 143.34286 36013 ft 449 kts 317°
2026-05-04 14:35 -14.20641 143.30022 36015 ft 449 kts 317°
2026-05-04 14:36 -14.15973 143.25790 36016 ft 449 kts 317°
2026-05-04 14:36 -14.11268 143.21527 36011 ft 450 kts 317°
2026-05-04 14:37 -14.06553 143.17256 36007 ft 451 kts 317°
2026-05-04 14:37 -14.01840 143.12989 36011 ft 451 kts 317°
2026-05-04 14:38 -13.97129 143.08729 36011 ft 450 kts 317°
2026-05-04 14:38 -13.92416 143.04468 36010 ft 451 kts 317°
2026-05-04 14:39 -13.87697 143.00205 36008 ft 451 kts 317°
2026-05-04 14:39 -13.83001 142.95964 36010 ft 452 kts 317°
2026-05-04 14:40 -13.75901 142.89556 36004 ft 452 kts 317°
2026-05-04 14:40 -13.71161 142.85279 35999 ft 452 kts 317°
2026-05-04 14:41 -13.66423 142.81010 35998 ft 452 kts 317°
2026-05-04 14:42 -13.56986 142.72513 36000 ft 453 kts 317°
2026-05-04 14:42 -13.52238 142.68240 36002 ft 453 kts 317°
2026-05-04 14:43 -13.47491 142.63972 36001 ft 453 kts 317°
2026-05-04 14:43 -13.42739 142.59700 35997 ft 453 kts 317°
2026-05-04 14:44 -13.37985 142.55428 35991 ft 453 kts 318°
2026-05-04 14:44 -13.33237 142.51166 35995 ft 453 kts 318°
2026-05-04 14:45 -13.28476 142.46895 35999 ft 454 kts 318°
2026-05-04 14:45 -13.23716 142.42627 35999 ft 454 kts 318°
2026-05-04 14:46 -13.18948 142.38354 35997 ft 454 kts 318°
2026-05-04 14:46 -13.14212 142.34112 35995 ft 454 kts 318°
2026-05-04 14:47 -13.09434 142.29834 35997 ft 454 kts 318°
2026-05-04 14:47 -13.04662 142.25562 35990 ft 455 kts 318°
2026-05-04 14:48 -12.99890 142.21293 35992 ft 455 kts 318°
2026-05-04 14:48 -12.95108 142.17021 35991 ft 455 kts 318°
2026-05-04 14:49 -12.90367 142.12786 35994 ft 455 kts 318°
2026-05-04 14:49 -12.85589 142.08520 35991 ft 455 kts 318°
2026-05-04 14:50 -12.80809 142.04255 36000 ft 455 kts 318°
2026-05-04 14:50 -12.76016 141.99981 35992 ft 457 kts 318°
2026-05-04 14:51 -12.71221 141.95703 35987 ft 457 kts 318°
2026-05-04 14:51 -12.66490 141.91343 35987 ft 457 kts 315°
2026-05-04 14:52 -12.61995 141.86728 35989 ft 457 kts 314°
2026-05-04 14:52 -12.57543 141.82140 35989 ft 457 kts 314°
2026-05-04 14:53 -12.53056 141.77520 35989 ft 458 kts 314°
2026-05-04 14:53 -12.48565 141.72894 35988 ft 458 kts 314°
2026-05-04 14:54 -12.44070 141.68264 35989 ft 458 kts 314°
2026-05-04 14:54 -12.39571 141.63634 35985 ft 458 kts 314°
2026-05-04 14:55 -12.35100 141.59032 35983 ft 459 kts 314°
2026-05-04 14:55 -12.30584 141.54392 35985 ft 459 kts 314°
2026-05-04 14:56 -12.26071 141.49756 35998 ft 459 kts 314°
2026-05-04 14:56 -12.21552 141.45117 35984 ft 459 kts 314°
2026-05-04 14:57 -12.17040 141.40487 35981 ft 459 kts 314°
2026-05-04 14:57 -12.12547 141.35878 35984 ft 459 kts 314°
2026-05-04 14:58 -12.08028 141.31248 35980 ft 460 kts 314°
2026-05-04 14:58 -12.04237 141.27362 35977 ft 460 kts 314°
2026-05-04 14:59 -11.98974 141.21967 35971 ft 461 kts 315°
2026-05-04 15:00 -11.92190 141.15025 35969 ft 461 kts 314°
2026-05-04 15:00 -11.87648 141.10380 35990 ft 461 kts 315°
2026-05-04 15:01 -11.80845 141.03428 35974 ft 461 kts 314°
2026-05-04 15:01 -11.76332 140.98816 35988 ft 461 kts 314°
2026-05-04 15:02 -11.71790 140.94177 35987 ft 461 kts 314°
2026-05-04 15:02 -11.67247 140.89540 35967 ft 461 kts 315°
2026-05-04 15:03 -11.62702 140.84902 35965 ft 461 kts 315°
2026-05-04 15:03 -11.58151 140.80262 35968 ft 461 kts 315°
2026-05-04 15:04 -11.53606 140.75631 35972 ft 461 kts 315°
2026-05-04 15:04 -11.49095 140.71036 35966 ft 461 kts 315°
2026-05-04 15:05 -11.44545 140.66404 35968 ft 461 kts 315°
2026-05-04 15:05 -11.40000 140.61777 35965 ft 461 kts 315°
2026-05-04 15:06 -11.35459 140.57158 35970 ft 461 kts 315°
2026-05-04 15:07 -11.28676 140.50264 35970 ft 461 kts 315°
2026-05-04 15:07 -11.24129 140.45645 35966 ft 461 kts 315°
2026-05-04 15:08 -11.19587 140.41033 35969 ft 461 kts 315°
2026-05-04 15:08 -11.15039 140.36415 35964 ft 461 kts 315°
2026-05-04 15:09 -11.11257 140.32578 35968 ft 461 kts 315°
2026-05-04 15:09 -11.06714 140.27972 35966 ft 461 kts 315°
2026-05-04 15:10 -10.99882 140.21045 35965 ft 461 kts 315°
2026-05-04 15:11 -10.93049 140.14129 35962 ft 462 kts 315°
2026-05-04 15:11 -10.88512 140.09544 35976 ft 462 kts 315°
2026-05-04 15:12 -10.83946 140.04932 35960 ft 462 kts 315°
2026-05-04 15:12 -10.79380 140.00322 35960 ft 462 kts 315°
2026-05-04 15:13 -10.74821 139.95721 35961 ft 462 kts 315°
2026-05-04 15:13 -10.70286 139.91147 35960 ft 461 kts 315°
2026-05-04 15:14 -10.65727 139.86546 35956 ft 462 kts 315°
2026-05-04 15:14 -10.61157 139.81939 35966 ft 462 kts 315°
2026-05-04 15:15 -10.56583 139.77332 35952 ft 462 kts 315°
2026-05-04 15:15 -10.52012 139.72731 35954 ft 462 kts 315°
2026-05-04 15:16 -10.45162 139.65836 35947 ft 461 kts 315°
2026-05-04 15:17 -10.38339 139.58971 35955 ft 462 kts 315°
2026-05-04 15:17 -10.31484 139.52078 35946 ft 463 kts 315°
2026-05-04 15:18 -10.26889 139.47464 35960 ft 463 kts 315°
2026-05-04 15:19 -10.20012 139.40558 35944 ft 463 kts 315°
2026-05-04 15:19 -10.13159 139.33680 35958 ft 463 kts 315°
2026-05-04 15:20 -10.08568 139.29077 35946 ft 463 kts 315°
2026-05-04 15:20 -10.03973 139.24469 35940 ft 463 kts 315°
2026-05-04 15:21 -9.99384 139.19869 35957 ft 465 kts 315°
2026-05-04 15:22 -9.92437 139.12912 36077 ft 468 kts 315°
2026-05-04 15:22 -9.90150 139.10622 36349 ft 467 kts 315°
2026-05-04 15:22 -9.85542 139.06011 36960 ft 463 kts 315°
2026-05-04 15:23 -9.83251 139.03719 37277 ft 461 kts 315°
2026-05-04 15:23 -9.80969 139.01436 37545 ft 460 kts 315°
2026-05-04 15:23 -9.78696 138.99162 37795 ft 459 kts 315°
2026-05-04 15:23 -9.76420 138.96886 37937 ft 459 kts 315°
2026-05-04 15:24 -9.67337 138.87807 37946 ft 458 kts 316°
2026-05-04 15:25 -9.62812 138.83289 37944 ft 459 kts 315°
2026-05-04 15:26 -9.55888 138.76378 37949 ft 471 kts 315°
2026-05-04 15:26 -9.48841 138.69348 37944 ft 474 kts 315°
2026-05-04 15:27 -9.41783 138.62312 37945 ft 474 kts 315°
2026-05-04 15:28 -9.34731 138.55280 37946 ft 474 kts 316°
2026-05-04 15:29 -9.27698 138.48275 37942 ft 474 kts 316°
2026-05-04 15:30 -9.11208 138.31872 37943 ft 474 kts 316°
2026-05-04 15:31 -9.04133 138.24841 37947 ft 474 kts 316°
2026-05-04 15:32 -8.92367 138.13158 37939 ft 475 kts 316°
2026-05-04 15:34 -8.79965 138.02125 37941 ft 475 kts 323°
2026-05-04 15:34 -8.72088 137.96026 37940 ft 476 kts 323°
2026-05-04 15:35 -8.64182 137.89906 37941 ft 476 kts 323°
2026-05-04 15:36 -8.56314 137.83825 37938 ft 476 kts 323°
2026-05-04 15:36 -8.51014 137.79729 37936 ft 476 kts 324°
2026-05-04 15:37 -8.45754 137.75661 37936 ft 476 kts 324°
2026-05-04 15:37 -8.40517 137.71618 37918 ft 476 kts 323°
2026-05-04 15:38 -8.35210 137.67532 37933 ft 482 kts 323°
2026-05-04 15:38 -8.29872 137.63406 37938 ft 483 kts 323°
2026-05-04 15:39 -8.24527 137.59279 37938 ft 483 kts 323°
2026-05-04 15:40 -8.16543 137.53114 37935 ft 480 kts 323°
2026-05-04 15:40 -8.11257 137.49041 37934 ft 480 kts 323°
2026-05-04 15:41 -8.05937 137.44943 37936 ft 480 kts 323°
2026-05-04 15:41 -8.00625 137.40850 37934 ft 480 kts 323°
2026-05-04 15:42 -7.95313 137.36759 37935 ft 479 kts 324°
2026-05-04 15:42 -7.90008 137.32673 37934 ft 479 kts 324°
2026-05-04 15:43 -7.84740 137.28620 37932 ft 478 kts 324°
2026-05-04 15:43 -7.79441 137.24543 37910 ft 479 kts 323°
2026-05-04 15:44 -7.74138 137.20466 37924 ft 481 kts 323°
2026-05-04 15:44 -7.68797 137.16358 37924 ft 482 kts 323°
2026-05-04 15:45 -7.63461 137.12254 37929 ft 481 kts 323°
2026-05-04 15:45 -7.58121 137.08151 37929 ft 483 kts 323°
2026-05-04 15:46 -7.52785 137.04050 37924 ft 481 kts 323°
2026-05-04 15:46 -7.47477 136.99978 37929 ft 484 kts 323°
2026-05-04 15:47 -7.42105 136.95854 37924 ft 485 kts 323°
2026-05-04 15:47 -7.36718 136.91722 37927 ft 487 kts 323°
2026-05-04 15:48 -7.31332 136.87585 37925 ft 486 kts 323°
2026-05-04 15:48 -7.23241 136.81381 37924 ft 487 kts 323°
2026-05-04 15:49 -7.17888 136.77273 37919 ft 486 kts 323°
2026-05-04 15:49 -7.12501 136.73143 37926 ft 486 kts 323°
2026-05-04 15:50 -7.07124 136.69022 37920 ft 484 kts 323°
2026-05-04 15:50 -7.01744 136.64908 37922 ft 486 kts 323°
2026-05-04 15:51 -6.96362 136.60784 37922 ft 485 kts 323°
2026-05-04 15:51 -6.90985 136.56670 37915 ft 486 kts 323°
2026-05-04 15:52 -6.85581 136.52534 37923 ft 488 kts 323°
2026-05-04 15:52 -6.80167 136.48393 37921 ft 489 kts 323°
2026-05-04 15:53 -6.74744 136.44245 37917 ft 489 kts 323°
2026-05-04 15:53 -6.69329 136.40104 37919 ft 489 kts 323°
2026-05-04 15:54 -6.63936 136.35983 37922 ft 489 kts 323°
2026-05-04 15:54 -6.58517 136.31840 37919 ft 489 kts 323°
2026-05-04 15:55 -6.53067 136.27680 37919 ft 493 kts 323°
2026-05-04 15:55 -6.47599 136.23501 37916 ft 493 kts 323°
2026-05-04 15:56 -6.42131 136.19328 37917 ft 493 kts 323°
2026-05-04 15:56 -6.36657 136.15148 37914 ft 494 kts 323°
2026-05-04 15:57 -6.31207 136.10991 37919 ft 495 kts 323°
2026-05-04 15:57 -6.25715 136.06797 37920 ft 496 kts 324°
2026-05-04 15:58 -6.20207 136.02597 37916 ft 496 kts 324°
2026-05-04 15:58 -6.15599 135.99086 37916 ft 496 kts 324°
2026-05-04 15:59 -6.10124 135.94911 37915 ft 497 kts 323°
2026-05-04 15:59 -6.04592 135.90700 37917 ft 498 kts 323°
2026-05-04 16:00 -5.99074 135.86492 37921 ft 498 kts 324°
2026-05-04 16:00 -5.93552 135.82287 37920 ft 497 kts 323°
2026-05-04 16:01 -5.88040 135.78090 37917 ft 497 kts 324°
2026-05-04 16:01 -5.82524 135.73891 37915 ft 497 kts 323°
2026-05-04 16:02 -5.77001 135.69687 37916 ft 497 kts 323°
2026-05-04 16:03 -5.68757 135.63414 37919 ft 497 kts 323°
2026-05-04 16:03 -5.63248 135.59224 37918 ft 496 kts 323°
2026-05-04 16:04 -5.57732 135.55030 37913 ft 497 kts 324°
2026-05-04 16:04 -5.49459 135.48740 37913 ft 497 kts 324°
2026-05-04 16:05 -5.43947 135.44551 37913 ft 497 kts 323°
2026-05-04 16:06 -5.35711 135.38296 37914 ft 495 kts 323°
2026-05-04 16:07 -5.24708 135.29938 37914 ft 496 kts 323°
2026-05-04 16:08 -5.13681 135.21567 37914 ft 496 kts 323°
2026-05-04 16:09 -4.99909 135.11117 37917 ft 496 kts 323°
2026-05-04 16:10 -4.88924 135.02787 37912 ft 496 kts 323°
2026-05-04 16:11 -4.77943 134.94464 37912 ft 492 kts 323°
2026-05-04 16:12 -4.61560 134.82051 37917 ft 492 kts 323°
2026-05-04 16:13 -4.50635 134.73781 37913 ft 492 kts 323°
2026-05-04 16:14 -4.39718 134.65514 37912 ft 491 kts 323°
2026-05-04 16:16 -4.26056 134.55178 37911 ft 496 kts 323°
2026-05-04 16:17 -4.12281 134.44757 37919 ft 496 kts 323°
2026-05-04 16:18 -4.01235 134.36408 37925 ft 499 kts 323°
2026-05-04 16:19 -3.87408 134.25957 37929 ft 499 kts 323°
2026-05-04 16:20 -3.73548 134.15486 37939 ft 499 kts 323°
2026-05-04 16:22 -3.59682 134.05017 37938 ft 499 kts 323°
2026-05-04 16:23 -3.43029 133.92447 37937 ft 500 kts 323°
2026-05-04 16:25 -3.26381 133.79889 37923 ft 502 kts 323°
2026-05-04 16:26 -3.06854 133.65165 37917 ft 502 kts 323°
2026-05-04 16:28 -2.93050 133.54466 37914 ft 501 kts 321°
2026-05-04 16:29 -2.74015 133.39126 37911 ft 500 kts 322°
2026-05-04 16:31 -2.60481 133.28260 37911 ft 499 kts 322°
2026-05-04 16:32 -2.44193 133.15188 37900 ft 500 kts 321°
2026-05-04 16:33 -2.33356 133.06493 37905 ft 500 kts 322°
2026-05-04 16:34 -2.25210 132.99958 37908 ft 500 kts 322°
2026-05-04 16:35 -2.08877 132.86859 37903 ft 502 kts 321°
2026-05-04 16:36 -2.00696 132.80299 37903 ft 502 kts 321°
2026-05-04 16:37 -1.92519 132.73744 37903 ft 502 kts 321°
2026-05-04 16:38 -1.81623 132.65008 37903 ft 503 kts 321°
2026-05-04 16:39 -1.67945 132.54046 37904 ft 504 kts 321°
2026-05-04 16:40 -1.56994 132.45269 37911 ft 507 kts 321°
2026-05-04 16:41 -1.43197 132.34216 37913 ft 508 kts 321°
2026-05-04 16:43 -1.29423 132.23179 37918 ft 506 kts 322°
2026-05-04 16:43 -1.22102 132.17316 37917 ft 508 kts 322°
2026-05-04 16:45 -1.05589 132.04089 37920 ft 504 kts 322°
2026-05-04 16:46 -0.91894 131.93124 37910 ft 506 kts 322°
2026-05-04 16:47 -0.80939 131.84349 37903 ft 503 kts 322°
2026-05-04 16:48 -0.70011 131.75601 37895 ft 503 kts 322°
2026-05-04 16:49 -0.59081 131.66851 37889 ft 503 kts 322°
2026-05-04 16:50 -0.48126 131.58083 37886 ft 505 kts 322°
2026-05-04 16:51 -0.39894 131.51492 37887 ft 505 kts 322°
2026-05-04 16:52 -0.28925 131.42709 37887 ft 505 kts 322°
2026-05-04 16:53 -0.20733 131.36151 37883 ft 505 kts 322°
2026-05-04 16:54 -0.09760 131.27368 37886 ft 504 kts 322°
2026-05-04 16:55 0.06657 131.14226 37883 ft 505 kts 321°
2026-05-04 16:56 0.20421 131.03207 37883 ft 507 kts 321°
2026-05-04 16:57 0.28677 130.96598 37878 ft 506 kts 321°
2026-05-04 16:58 0.39640 130.87819 37875 ft 507 kts 322°
2026-05-04 17:00 0.56175 130.74584 37875 ft 507 kts 322°
2026-05-04 17:01 0.69981 130.63531 37873 ft 508 kts 321°
2026-05-04 17:02 0.80984 130.54721 37872 ft 508 kts 321°
2026-05-04 17:03 0.89253 130.48100 37873 ft 507 kts 321°
2026-05-04 17:03 0.97491 130.41503 37872 ft 507 kts 322°
2026-05-04 17:04 1.08520 130.32670 37873 ft 507 kts 322°
2026-05-04 17:05 1.19531 130.23849 37872 ft 507 kts 322°
2026-05-04 17:06 1.27767 130.17253 37874 ft 507 kts 322°
2026-05-04 17:07 1.35141 130.11347 37875 ft 507 kts 322°
2026-05-04 17:07 1.41548 130.06215 37875 ft 507 kts 322°
2026-05-04 17:08 1.49806 129.99598 37878 ft 506 kts 322°
2026-05-04 17:09 1.55295 129.95200 37880 ft 505 kts 322°
2026-05-04 17:09 1.60785 129.90802 37878 ft 505 kts 322°
2026-05-04 17:10 1.74457 129.79846 37878 ft 505 kts 322°
2026-05-04 17:11 1.79937 129.75457 37876 ft 503 kts 321°
2026-05-04 17:12 1.88123 129.68894 37878 ft 503 kts 321°
2026-05-04 17:13 2.01880 129.58085 37875 ft 502 kts 323°
2026-05-04 17:14 2.13052 129.49702 37875 ft 505 kts 323°
2026-05-04 17:15 2.21467 129.43355 37876 ft 504 kts 323°
2026-05-04 17:16 2.32676 129.34893 37874 ft 504 kts 323°
2026-05-04 17:17 2.43884 129.26429 37876 ft 504 kts 323°
2026-05-04 17:18 2.55055 129.17993 37873 ft 504 kts 323°
2026-05-04 17:19 2.66290 129.09507 37875 ft 504 kts 323°
2026-05-04 17:20 2.77454 129.01070 37873 ft 504 kts 323°
2026-05-04 17:20 2.85864 128.94714 37875 ft 504 kts 323°
2026-05-04 17:21 2.97038 128.86269 37875 ft 504 kts 322°
2026-05-04 17:22 3.02639 128.82034 37876 ft 505 kts 322°
2026-05-04 17:23 3.13884 128.73530 37878 ft 505 kts 322°
2026-05-04 17:24 3.22257 128.67196 37875 ft 505 kts 322°
2026-05-04 17:25 3.33484 128.58702 37878 ft 505 kts 322°
2026-05-04 17:26 3.44703 128.50211 37875 ft 505 kts 322°
2026-05-04 17:27 3.58698 128.39617 37879 ft 505 kts 322°
2026-05-04 17:28 3.69912 128.31124 37878 ft 505 kts 322°
2026-05-04 17:29 3.86689 128.18415 37878 ft 504 kts 322°
2026-05-04 17:31 4.00670 128.07817 37875 ft 504 kts 322°
2026-05-04 17:32 4.14546 127.97108 37876 ft 503 kts 322°
2026-05-04 17:33 4.24717 127.89256 37875 ft 504 kts 322°
2026-05-04 17:34 4.35849 127.80665 37875 ft 504 kts 322°
2026-05-04 17:35 4.49714 127.69960 37879 ft 504 kts 322°
2026-05-04 17:36 4.55277 127.65660 37877 ft 504 kts 322°
2026-05-04 17:36 4.60837 127.61365 37878 ft 505 kts 322°
2026-05-04 17:37 4.66404 127.57066 37880 ft 504 kts 322°
2026-05-04 17:37 4.71960 127.52772 37875 ft 504 kts 322°
2026-05-04 17:38 4.77481 127.48504 37875 ft 504 kts 322°
2026-05-04 17:38 4.83029 127.44212 37875 ft 504 kts 322°
2026-05-04 17:39 4.91376 127.37759 37876 ft 504 kts 323°
2026-05-04 17:39 4.96934 127.33460 37878 ft 504 kts 323°
2026-05-04 17:40 5.02481 127.29169 37880 ft 503 kts 322°
2026-05-04 17:40 5.08002 127.24895 37880 ft 504 kts 323°
2026-05-04 17:41 5.13556 127.20595 37879 ft 504 kts 323°
2026-05-04 17:41 5.19118 127.16289 37880 ft 504 kts 323°
2026-05-04 17:42 5.24667 127.11992 37879 ft 503 kts 323°
2026-05-04 17:42 5.30183 127.07719 37881 ft 502 kts 322°
2026-05-04 17:43 5.35712 127.03436 37877 ft 502 kts 323°
2026-05-04 17:43 5.41252 126.99142 37880 ft 502 kts 323°
2026-05-04 17:44 5.46794 126.94844 37881 ft 504 kts 323°
2026-05-04 17:44 5.52363 126.90531 37881 ft 503 kts 322°
2026-05-04 17:45 5.57862 126.86264 37881 ft 503 kts 322°
2026-05-04 17:45 5.63399 126.81970 37884 ft 501 kts 322°
2026-05-04 17:46 5.68923 126.77682 37882 ft 503 kts 322°
2026-05-04 17:46 5.74463 126.73382 37882 ft 502 kts 322°
2026-05-04 17:47 5.80004 126.69080 37883 ft 503 kts 322°
2026-05-04 17:47 5.85549 126.64777 37885 ft 502 kts 322°
2026-05-04 17:48 5.91080 126.60480 37885 ft 503 kts 322°
2026-05-04 17:48 5.96607 126.56186 37887 ft 500 kts 322°
2026-05-04 17:49 6.02104 126.51913 37884 ft 502 kts 322°
2026-05-04 17:49 6.07633 126.47616 37883 ft 502 kts 322°
2026-05-04 17:50 6.13176 126.43306 37891 ft 503 kts 322°
2026-05-04 17:50 6.18713 126.39000 37886 ft 502 kts 322°
2026-05-04 17:51 6.24251 126.34691 37885 ft 503 kts 322°
2026-05-04 17:51 6.29781 126.30389 37887 ft 501 kts 322°
2026-05-04 17:52 6.35300 126.26092 37888 ft 502 kts 322°
2026-05-04 17:52 6.40794 126.21815 37895 ft 501 kts 322°
2026-05-04 17:53 6.46326 126.17507 37897 ft 503 kts 322°
2026-05-04 17:53 6.51868 126.13190 37905 ft 503 kts 322°
2026-05-04 17:54 6.57396 126.08883 37902 ft 502 kts 322°
2026-05-04 17:54 6.62931 126.04570 37909 ft 501 kts 322°
2026-05-04 17:55 6.68446 126.00271 37913 ft 501 kts 322°
2026-05-04 17:55 6.73928 125.95995 37913 ft 502 kts 322°
2026-05-04 17:56 6.79450 125.91688 37924 ft 501 kts 322°
2026-05-04 17:56 6.84961 125.87389 37924 ft 500 kts 322°
2026-05-04 17:57 6.90469 125.83089 37936 ft 500 kts 322°
2026-05-04 17:57 6.95970 125.78793 37936 ft 500 kts 322°
2026-05-04 17:58 7.01470 125.74497 37941 ft 500 kts 322°
2026-05-04 17:58 7.06939 125.70226 37951 ft 500 kts 322°
2026-05-04 17:59 7.12572 125.66089 37951 ft 501 kts 327°
2026-05-04 18:00 7.21672 125.60924 37957 ft 500 kts 333°
2026-05-04 18:00 7.27878 125.57721 37959 ft 501 kts 333°
2026-05-04 18:01 7.34073 125.54516 37972 ft 501 kts 333°
2026-05-04 18:01 7.40271 125.51301 37969 ft 500 kts 333°
2026-05-04 18:02 7.49527 125.46488 37966 ft 500 kts 333°
2026-05-04 18:02 7.55715 125.43267 37972 ft 501 kts 333°
2026-05-04 18:03 7.61924 125.40035 37973 ft 502 kts 333°
2026-05-04 18:03 7.68137 125.36802 37971 ft 501 kts 333°
2026-05-04 18:04 7.74333 125.33577 37969 ft 500 kts 333°
2026-05-04 18:05 7.83588 125.28758 37975 ft 501 kts 333°
2026-05-04 18:05 7.89778 125.25533 37977 ft 501 kts 333°
2026-05-04 18:06 7.99058 125.20696 37983 ft 499 kts 333°
2026-05-04 18:06 8.05229 125.17482 37982 ft 499 kts 333°
2026-05-04 18:07 8.11416 125.14260 37983 ft 500 kts 333°
2026-05-04 18:07 8.17608 125.11036 37983 ft 500 kts 333°
2026-05-04 18:08 8.23758 125.07832 37984 ft 500 kts 333°
2026-05-04 18:08 8.29958 125.04602 37985 ft 501 kts 333°
2026-05-04 18:09 8.42335 124.98139 37974 ft 500 kts 333°
2026-05-04 18:10 8.48512 124.94911 37959 ft 499 kts 333°
2026-05-04 18:10 8.54689 124.91684 37948 ft 499 kts 333°
2026-05-04 18:11 8.60833 124.88472 37932 ft 499 kts 333°
2026-05-04 18:11 8.67011 124.85242 37931 ft 499 kts 333°
2026-05-04 18:12 8.73175 124.82016 37911 ft 500 kts 333°
2026-05-04 18:12 8.79364 124.78779 37914 ft 500 kts 333°
2026-05-04 18:13 8.85506 124.75565 37906 ft 500 kts 333°
2026-05-04 18:14 8.94781 124.70712 37892 ft 501 kts 333°
2026-05-04 18:14 9.00996 124.67455 37890 ft 503 kts 333°
2026-05-04 18:15 9.13385 124.60952 37885 ft 500 kts 333°
2026-05-04 18:16 9.19524 124.57730 37885 ft 501 kts 333°
2026-05-04 18:16 9.25722 124.54477 37892 ft 501 kts 333°
2026-05-04 18:17 9.35003 124.49604 37891 ft 500 kts 333°
2026-05-04 18:18 9.44279 124.44732 37899 ft 501 kts 332°
2026-05-04 18:18 9.50484 124.41468 37901 ft 503 kts 332°
2026-05-04 18:19 9.59796 124.36569 37903 ft 502 kts 332°
2026-05-04 18:19 9.65989 124.33307 37904 ft 502 kts 332°
2026-05-04 18:20 9.72144 124.30065 37900 ft 503 kts 332°
2026-05-04 18:20 9.78357 124.26793 37907 ft 502 kts 332°
2026-05-04 18:21 9.84557 124.23527 37906 ft 501 kts 332°
2026-05-04 18:21 9.89708 124.20813 37908 ft 501 kts 332°
2026-05-04 18:22 9.95894 124.17552 37905 ft 501 kts 332°
2026-05-04 18:22 10.02088 124.14280 37905 ft 501 kts 332°
2026-05-04 18:23 10.08279 124.11012 37903 ft 501 kts 332°
2026-05-04 18:23 10.14471 124.07742 37900 ft 501 kts 332°
2026-05-04 18:24 10.20659 124.04475 37895 ft 501 kts 332°
2026-05-04 18:24 10.26851 124.01203 37896 ft 502 kts 332°
2026-05-04 18:25 10.32907 123.97705 37898 ft 501 kts 327°
2026-05-04 18:25 10.38654 123.93776 37897 ft 500 kts 325°
2026-05-04 18:26 10.44398 123.89771 37899 ft 500 kts 325°
2026-05-04 18:26 10.50132 123.85778 37902 ft 500 kts 325°
2026-05-04 18:27 10.55870 123.81788 37910 ft 500 kts 325°
2026-05-04 18:27 10.61614 123.77795 37908 ft 500 kts 325°
2026-05-04 18:28 10.67356 123.73800 37912 ft 500 kts 325°
2026-05-04 18:28 10.73102 123.69798 37905 ft 499 kts 325°
2026-05-04 18:29 10.78799 123.65828 37911 ft 499 kts 325°
2026-05-04 18:29 10.84532 123.61834 37905 ft 499 kts 325°
2026-05-04 18:30 10.93135 123.55838 37908 ft 499 kts 325°
2026-05-04 18:31 10.98868 123.51839 37906 ft 499 kts 325°
2026-05-04 18:31 11.04605 123.47837 37901 ft 501 kts 324°
2026-05-04 18:32 11.10353 123.43815 37905 ft 500 kts 324°
2026-05-04 18:32 11.16068 123.39824 37904 ft 501 kts 324°
2026-05-04 18:33 11.21818 123.35802 37899 ft 501 kts 324°
2026-05-04 18:33 11.27577 123.31776 37901 ft 502 kts 324°
2026-05-04 18:34 11.33329 123.27745 37902 ft 500 kts 324°
2026-05-04 18:34 11.39072 123.23733 37904 ft 499 kts 324°
2026-05-04 18:35 11.44786 123.19726 37906 ft 498 kts 324°
2026-05-04 18:35 11.50454 123.15750 37902 ft 497 kts 324°
2026-05-04 18:36 11.56162 123.11758 37907 ft 497 kts 324°
2026-05-04 18:36 11.61864 123.07758 37906 ft 497 kts 324°
2026-05-04 18:37 11.67560 123.03755 37902 ft 497 kts 324°
2026-05-04 18:37 11.73251 122.99762 37901 ft 495 kts 324°
2026-05-04 18:38 11.78929 122.95772 37904 ft 495 kts 324°
2026-05-04 18:38 11.84569 122.91806 37903 ft 495 kts 324°
2026-05-04 18:39 11.90240 122.87817 37899 ft 495 kts 324°
2026-05-04 18:39 11.95923 122.83821 37902 ft 496 kts 324°
2026-05-04 18:40 12.01601 122.79823 37908 ft 496 kts 324°
2026-05-04 18:40 12.07283 122.75821 37906 ft 495 kts 323°
2026-05-04 18:41 12.12955 122.71824 37905 ft 495 kts 323°
2026-05-04 18:41 12.18632 122.67822 37911 ft 495 kts 323°
2026-05-04 18:42 12.24273 122.63843 37908 ft 495 kts 323°
2026-05-04 18:42 12.29949 122.59838 37908 ft 495 kts 323°
2026-05-04 18:43 12.35619 122.55835 37911 ft 495 kts 323°
2026-05-04 18:43 12.41281 122.51832 37910 ft 494 kts 323°
2026-05-04 18:44 12.46950 122.47821 37915 ft 494 kts 323°
2026-05-04 18:44 12.52620 122.43809 37912 ft 494 kts 323°
2026-05-04 18:45 12.58247 122.39825 37909 ft 495 kts 323°
2026-05-04 18:45 12.63920 122.35807 37908 ft 495 kts 323°
2026-05-04 18:46 12.69584 122.31793 37911 ft 494 kts 323°
2026-05-04 18:46 12.75217 122.27794 37907 ft 490 kts 324°
2026-05-04 18:47 12.80826 122.23818 37904 ft 489 kts 324°
2026-05-04 18:47 12.86431 122.19842 37905 ft 489 kts 324°
2026-05-04 18:48 12.91995 122.15893 37910 ft 489 kts 324°
2026-05-04 18:48 12.97591 122.11916 37911 ft 489 kts 324°
2026-05-04 18:49 13.03191 122.07936 37911 ft 489 kts 324°
2026-05-04 18:49 13.08799 122.03944 37907 ft 490 kts 324°
2026-05-04 18:50 13.14406 121.99956 37910 ft 490 kts 324°
2026-05-04 18:50 13.20007 121.95967 37912 ft 490 kts 324°
2026-05-04 18:51 13.25586 121.91992 37911 ft 490 kts 324°
2026-05-04 18:51 13.31194 121.87996 37910 ft 490 kts 324°
2026-05-04 18:52 13.36801 121.83994 37911 ft 490 kts 324°
2026-05-04 18:52 13.42425 121.79987 37911 ft 492 kts 323°
2026-05-04 18:53 13.48012 121.75998 37912 ft 491 kts 323°
2026-05-04 18:53 13.53609 121.71995 37913 ft 490 kts 323°
2026-05-04 18:54 13.59210 121.67990 37912 ft 490 kts 323°
2026-05-04 18:54 13.64820 121.63978 37917 ft 490 kts 323°
2026-05-04 18:55 13.70427 121.59964 37913 ft 490 kts 323°
2026-05-04 18:55 13.78783 121.53976 37915 ft 489 kts 323°
2026-05-04 18:56 13.84373 121.49968 37922 ft 490 kts 323°
2026-05-04 18:56 13.89974 121.45950 37920 ft 490 kts 323°
2026-05-04 18:57 13.95564 121.41938 37924 ft 490 kts 323°
2026-05-04 18:57 14.01160 121.37921 37923 ft 490 kts 323°
2026-05-04 18:58 14.06757 121.33901 37930 ft 490 kts 323°
2026-05-04 18:58 14.12360 121.29876 37926 ft 490 kts 322°
2026-05-04 18:59 14.17968 121.25837 37923 ft 490 kts 322°
2026-05-04 18:59 14.23556 121.21814 37928 ft 490 kts 322°
2026-05-04 19:00 14.29108 121.17810 37928 ft 490 kts 322°
2026-05-04 19:00 14.34704 121.13775 37930 ft 490 kts 322°
2026-05-04 19:01 14.40298 121.09740 37929 ft 490 kts 322°
2026-05-04 19:01 14.45885 121.05708 37928 ft 489 kts 322°
2026-05-04 19:02 14.51462 121.01688 37922 ft 489 kts 323°
2026-05-04 19:02 14.57156 120.97813 37925 ft 490 kts 324°
2026-05-04 19:03 14.62876 120.93974 37928 ft 490 kts 324°
2026-05-04 19:03 14.68588 120.90115 37935 ft 490 kts 324°
2026-05-04 19:04 14.74249 120.86274 37936 ft 490 kts 324°
2026-05-04 19:04 14.79953 120.82403 37942 ft 490 kts 324°
2026-05-04 19:05 14.85677 120.78515 37938 ft 490 kts 324°
2026-05-04 19:05 14.91382 120.74640 37940 ft 490 kts 324°
2026-05-04 19:06 14.97058 120.70781 37949 ft 490 kts 324°
2026-05-04 19:06 15.02746 120.66909 37952 ft 490 kts 324°
2026-05-04 19:07 15.08445 120.63030 37952 ft 490 kts 324°
2026-05-04 19:07 15.14142 120.59154 37944 ft 489 kts 323°
2026-05-04 19:08 15.19896 120.55394 37962 ft 490 kts 327°
2026-05-04 19:08 15.25882 120.51991 37948 ft 490 kts 328°
2026-05-04 19:09 15.31884 120.48630 37949 ft 490 kts 328°
2026-05-04 19:09 15.37895 120.45255 37964 ft 490 kts 328°
2026-05-04 19:10 15.43853 120.41902 37965 ft 490 kts 328°
2026-05-04 19:10 15.49844 120.38529 37969 ft 489 kts 328°
2026-05-04 19:11 15.54818 120.35723 37955 ft 489 kts 328°
2026-05-04 19:11 15.60795 120.32350 37945 ft 489 kts 328°
2026-05-04 19:12 15.69766 120.27286 37940 ft 489 kts 328°
2026-05-04 19:13 15.75746 120.23903 37936 ft 489 kts 328°
2026-05-04 19:13 15.81704 120.20534 37940 ft 485 kts 328°
2026-05-04 19:14 15.87597 120.17200 37931 ft 484 kts 328°
2026-05-04 19:14 15.93514 120.13850 37924 ft 484 kts 328°
2026-05-04 19:15 15.99437 120.10492 37922 ft 485 kts 328°
2026-05-04 19:15 16.05355 120.07137 37923 ft 484 kts 328°
2026-05-04 19:16 16.11278 120.03778 37920 ft 484 kts 328°
2026-05-04 19:16 16.17184 120.00427 37913 ft 482 kts 328°
2026-05-04 19:17 16.23024 119.97109 37912 ft 482 kts 328°
2026-05-04 19:17 16.28913 119.93761 37906 ft 482 kts 328°
2026-05-04 19:18 16.34803 119.90411 37906 ft 482 kts 328°
2026-05-04 19:18 16.40687 119.87061 37906 ft 482 kts 328°
2026-05-04 19:19 16.46573 119.83709 37899 ft 482 kts 328°
2026-05-04 19:19 16.52455 119.80356 37895 ft 482 kts 328°
2026-05-04 19:20 16.58338 119.77000 37895 ft 482 kts 328°
2026-05-04 19:20 16.64223 119.73640 37890 ft 482 kts 328°
2026-05-04 19:21 16.70070 119.70301 37888 ft 482 kts 328°
2026-05-04 19:21 16.75948 119.66941 37887 ft 482 kts 328°
2026-05-04 19:22 16.81833 119.63578 37891 ft 481 kts 327°
2026-05-04 19:22 16.87706 119.60215 37886 ft 481 kts 327°
2026-05-04 19:23 16.93577 119.56850 37884 ft 481 kts 327°
2026-05-04 19:23 16.99453 119.53481 37883 ft 481 kts 327°
2026-05-04 19:24 17.05289 119.50135 37880 ft 481 kts 327°
2026-05-04 19:24 17.11158 119.46765 37893 ft 481 kts 327°
2026-05-04 19:25 17.17019 119.43400 37879 ft 480 kts 327°
2026-05-04 19:25 17.22878 119.40030 37881 ft 480 kts 327°
2026-05-04 19:26 17.28734 119.36660 37882 ft 480 kts 327°
2026-05-04 19:26 17.34588 119.33290 37882 ft 480 kts 327°
2026-05-04 19:27 17.40408 119.29937 37881 ft 480 kts 327°
2026-05-04 19:27 17.46267 119.26559 37885 ft 479 kts 327°
2026-05-04 19:28 17.52116 119.23184 37880 ft 479 kts 327°
2026-05-04 19:28 17.57966 119.19805 37883 ft 480 kts 327°
2026-05-04 19:29 17.63816 119.16426 37885 ft 480 kts 327°
2026-05-04 19:29 17.69666 119.13043 37885 ft 480 kts 327°
2026-05-04 19:30 17.75484 119.09678 37889 ft 480 kts 327°
2026-05-04 19:30 17.81332 119.06294 37893 ft 479 kts 327°
2026-05-04 19:31 17.87170 119.02911 37898 ft 479 kts 327°
2026-05-04 19:31 17.92950 118.99451 37891 ft 477 kts 324°
2026-05-04 19:32 17.98403 118.95494 37898 ft 474 kts 319°
2026-05-04 19:32 18.03435 118.91017 37898 ft 472 kts 313°
2026-05-04 19:33 18.08030 118.86110 37901 ft 470 kts 310°
2026-05-04 19:33 18.12514 118.81087 37917 ft 470 kts 309°
2026-05-04 19:34 18.16955 118.76104 37904 ft 469 kts 309°
2026-05-04 19:34 18.21422 118.71085 37907 ft 468 kts 309°
2026-05-04 19:35 18.25878 118.66076 37907 ft 469 kts 309°
2026-05-04 19:35 18.30341 118.61059 37911 ft 469 kts 309°
2026-05-04 19:36 18.34779 118.56064 37909 ft 469 kts 309°
2026-05-04 19:36 18.39240 118.51042 37914 ft 469 kts 309°
2026-05-04 19:37 18.43710 118.46003 37924 ft 469 kts 309°
2026-05-04 19:37 18.48170 118.40973 37937 ft 469 kts 309°
2026-05-04 19:38 18.52626 118.35945 37918 ft 468 kts 309°
2026-05-04 19:38 18.57071 118.30921 37929 ft 468 kts 309°
2026-05-04 19:39 18.61522 118.25889 37928 ft 468 kts 309°
2026-05-04 19:39 18.65963 118.20864 37921 ft 468 kts 309°
2026-05-04 19:40 18.70406 118.15831 37927 ft 468 kts 309°
2026-05-04 19:40 18.74823 118.10825 37933 ft 468 kts 309°
2026-05-04 19:41 18.79261 118.05789 37932 ft 468 kts 309°
2026-05-04 19:41 18.83710 118.00737 37929 ft 469 kts 309°
2026-05-04 19:42 18.88149 117.95690 37935 ft 468 kts 309°
2026-05-04 19:42 18.92563 117.90675 37933 ft 468 kts 309°
2026-05-04 19:43 18.97002 117.85628 37930 ft 468 kts 309°
2026-05-04 19:43 19.01422 117.80595 37936 ft 468 kts 309°
2026-05-04 19:44 19.05846 117.75548 37939 ft 468 kts 309°
2026-05-04 19:44 19.10276 117.70488 37937 ft 468 kts 309°
2026-05-04 19:45 19.14701 117.65431 37934 ft 468 kts 309°
2026-05-04 19:45 19.19130 117.60369 37938 ft 468 kts 309°
2026-05-04 19:46 19.23524 117.55343 37949 ft 467 kts 309°
2026-05-04 19:46 19.27928 117.50301 37939 ft 465 kts 309°
2026-05-04 19:47 19.32320 117.45265 37944 ft 465 kts 309°
2026-05-04 19:47 19.36709 117.40230 37944 ft 464 kts 309°
2026-05-04 19:48 19.41102 117.35186 37946 ft 464 kts 309°
2026-05-04 19:48 19.45490 117.30143 37949 ft 464 kts 309°
2026-05-04 19:49 19.49846 117.25134 37946 ft 464 kts 309°
2026-05-04 19:49 19.54225 117.20094 37948 ft 464 kts 309°
2026-05-04 19:50 19.58605 117.15050 37953 ft 464 kts 309°
2026-05-04 19:50 19.62970 117.10024 37959 ft 461 kts 309°
2026-05-04 19:51 19.67308 117.05015 37946 ft 460 kts 309°
2026-05-04 19:51 19.71641 117.00008 37951 ft 460 kts 309°
2026-05-04 19:52 19.75969 116.95004 37952 ft 460 kts 309°
2026-05-04 19:52 19.80301 116.89994 37951 ft 460 kts 309°
2026-05-04 19:53 19.84596 116.85021 37952 ft 460 kts 309°
2026-05-04 19:53 19.88921 116.80012 37952 ft 459 kts 309°
2026-05-04 19:54 19.93243 116.74999 37952 ft 459 kts 308°
2026-05-04 19:54 19.97403 116.69847 37951 ft 457 kts 304°
2026-05-04 19:55 20.01072 116.64346 37952 ft 454 kts 299°
2026-05-04 19:55 20.04230 116.58540 37954 ft 452 kts 295°
2026-05-04 19:56 20.07154 116.52649 37956 ft 452 kts 295°
2026-05-04 19:56 20.10091 116.46705 37960 ft 452 kts 295°
2026-05-04 19:57 20.13024 116.40761 37958 ft 452 kts 295°
2026-05-04 19:57 20.15458 116.35823 37962 ft 452 kts 295°
2026-05-04 19:58 20.18381 116.29886 37963 ft 452 kts 295°
2026-05-04 19:58 20.21303 116.23945 37962 ft 452 kts 295°
2026-05-04 19:59 20.24228 116.17991 37964 ft 452 kts 295°
2026-05-04 19:59 20.27153 116.12036 37962 ft 452 kts 295°
2026-05-04 20:00 20.30053 116.06125 37962 ft 452 kts 295°
2026-05-04 20:00 20.31511 116.03148 37811 ft 453 kts 295°
2026-05-04 20:00 20.32971 116.00164 37535 ft 453 kts 295°
2026-05-04 20:00 20.34426 115.97187 37285 ft 453 kts 295°
2026-05-04 20:01 20.35884 115.94203 37024 ft 454 kts 295°
2026-05-04 20:01 20.37347 115.91206 36777 ft 454 kts 295°
2026-05-04 20:01 20.38809 115.88212 36524 ft 455 kts 295°
2026-05-04 20:01 20.40277 115.85206 36284 ft 456 kts 295°
2026-05-04 20:02 20.41742 115.82206 36056 ft 456 kts 295°
2026-05-04 20:02 20.43207 115.79205 35811 ft 455 kts 295°
2026-05-04 20:02 20.44673 115.76198 35574 ft 456 kts 295°
2026-05-04 20:02 20.46138 115.73192 35336 ft 456 kts 295°
2026-05-04 20:03 20.47588 115.70215 35104 ft 457 kts 295°
2026-05-04 20:03 20.49056 115.67198 34870 ft 457 kts 295°
2026-05-04 20:03 20.50524 115.64179 34645 ft 458 kts 295°
2026-05-04 20:03 20.52042 115.61197 34410 ft 455 kts 297°
2026-05-04 20:04 20.53686 115.58319 34178 ft 454 kts 300°
2026-05-04 20:04 20.55465 115.55527 33949 ft 455 kts 302°
2026-05-04 20:04 20.57382 115.52819 33692 ft 457 kts 305°
2026-05-04 20:04 20.59428 115.50214 33433 ft 459 kts 307°
2026-05-04 20:05 20.61586 115.47731 33185 ft 462 kts 310°
2026-05-04 20:05 20.63863 115.45305 32941 ft 464 kts 311°
2026-05-04 20:05 20.66171 115.42879 32539 ft 464 kts 311°
2026-05-04 20:05 20.68464 115.40480 32014 ft 459 kts 311°
2026-05-04 20:06 20.70751 115.38089 31395 ft 458 kts 311°
2026-05-04 20:06 20.73028 115.35705 30721 ft 459 kts 311°
2026-05-04 20:06 20.75298 115.33327 30258 ft 454 kts 311°
2026-05-04 20:06 20.77552 115.30966 29675 ft 452 kts 311°
2026-05-04 20:07 20.79787 115.28624 29209 ft 446 kts 311°
2026-05-04 20:07 20.81998 115.26311 28653 ft 443 kts 311°
2026-05-04 20:07 20.84181 115.24021 28193 ft 438 kts 311°
2026-05-04 20:07 20.86344 115.21748 27744 ft 433 kts 311°
2026-05-04 20:08 20.88484 115.19498 27309 ft 428 kts 311°
2026-05-04 20:08 20.90576 115.17297 26896 ft 426 kts 311°
2026-05-04 20:08 20.92691 115.15069 26479 ft 426 kts 311°
2026-05-04 20:08 20.94796 115.12852 26047 ft 424 kts 311°
2026-05-04 20:09 20.96899 115.10638 25634 ft 422 kts 311°
2026-05-04 20:09 20.98987 115.08439 25211 ft 420 kts 311°
2026-05-04 20:09 21.01068 115.06245 24788 ft 418 kts 311°
2026-05-04 20:09 21.03134 115.04066 24371 ft 416 kts 311°
2026-05-04 20:10 21.05192 115.01893 23942 ft 414 kts 311°
2026-05-04 20:10 21.07235 114.99736 23499 ft 412 kts 311°
2026-05-04 20:10 21.09268 114.97588 23015 ft 409 kts 311°
2026-05-04 20:10 21.11293 114.95450 22569 ft 407 kts 311°
2026-05-04 20:11 21.13303 114.93325 22128 ft 404 kts 311°
2026-05-04 20:11 21.15299 114.91217 21696 ft 401 kts 311°
2026-05-04 20:11 21.17285 114.89119 21292 ft 398 kts 311°
2026-05-04 20:11 21.19252 114.87040 20886 ft 395 kts 311°
2026-05-04 20:12 21.21204 114.84974 20483 ft 392 kts 311°
2026-05-04 20:12 21.23144 114.82921 20071 ft 390 kts 311°
2026-05-04 20:12 21.25043 114.80911 19655 ft 386 kts 311°
2026-05-04 20:12 21.26945 114.78896 19253 ft 383 kts 311°
2026-05-04 20:13 21.28840 114.76889 18850 ft 380 kts 311°
2026-05-04 20:13 21.30717 114.74899 18439 ft 378 kts 311°
2026-05-04 20:13 21.32582 114.72922 18007 ft 376 kts 311°
2026-05-04 20:13 21.34433 114.70959 17569 ft 373 kts 311°
2026-05-04 20:14 21.36275 114.69004 17159 ft 370 kts 311°
2026-05-04 20:14 21.38097 114.67071 16755 ft 367 kts 311°
2026-05-04 20:14 21.39904 114.65153 16352 ft 364 kts 311°
2026-05-04 20:14 21.41701 114.63245 15966 ft 361 kts 311°
2026-05-04 20:15 21.43486 114.61348 15581 ft 359 kts 311°
2026-05-04 20:15 21.45258 114.59464 15196 ft 357 kts 311°
2026-05-04 20:15 21.47049 114.57616 14800 ft 357 kts 315°
2026-05-04 20:15 21.49057 114.56082 14403 ft 360 kts 325°
2026-05-04 20:16 21.51330 114.54921 14042 ft 364 kts 335°
2026-05-04 20:16 21.53758 114.54034 13636 ft 364 kts 338°
2026-05-04 20:16 21.56139 114.53228 13218 ft 362 kts 339°
2026-05-04 20:16 21.58518 114.52427 12980 ft 353 kts 338°
2026-05-04 20:17 21.60727 114.51435 12983 ft 337 kts 326°
2026-05-04 20:17 21.62624 114.49982 12989 ft 337 kts 314°
2026-05-04 20:17 21.64277 114.48182 12988 ft 338 kts 309°
2026-05-04 20:17 21.65874 114.46320 12982 ft 339 kts 308°
2026-05-04 20:18 21.67470 114.44448 12984 ft 339 kts 308°
2026-05-04 20:18 21.69066 114.42583 12984 ft 339 kts 308°
2026-05-04 20:18 21.70669 114.40716 12975 ft 339 kts 309°
2026-05-04 20:18 21.72272 114.38855 12983 ft 339 kts 309°
2026-05-04 20:19 21.73874 114.36998 12985 ft 338 kts 309°
2026-05-04 20:19 21.75474 114.35145 12974 ft 337 kts 309°
2026-05-04 20:19 21.77077 114.33291 12833 ft 338 kts 309°
2026-05-04 20:19 21.78678 114.31438 12390 ft 337 kts 309°
2026-05-04 20:20 21.80267 114.29601 12016 ft 333 kts 309°
2026-05-04 20:20 21.81839 114.27780 11627 ft 330 kts 309°
2026-05-04 20:20 21.83382 114.25992 11269 ft 327 kts 309°
2026-05-04 20:20 21.84924 114.24204 10907 ft 324 kts 309°
2026-05-04 20:21 21.86458 114.22424 10547 ft 322 kts 309°
2026-05-04 20:21 21.87969 114.20658 10264 ft 316 kts 307°
2026-05-04 20:21 21.90396 114.16981 10082 ft 287 kts 296°
2026-05-04 20:22 21.91364 114.15118 9951 ft 287 kts 295°
2026-05-04 20:22 21.92330 114.13234 9574 ft 287 kts 295°
2026-05-04 20:22 21.93298 114.11355 9230 ft 285 kts 295°
2026-05-04 20:22 21.94258 114.09496 8904 ft 283 kts 295°
2026-05-04 20:23 21.95211 114.07654 8592 ft 280 kts 295°
2026-05-04 20:23 21.96152 114.05812 8279 ft 279 kts 297°
2026-05-04 20:23 21.97088 114.03983 7966 ft 278 kts 297°
2026-05-04 20:23 21.98024 114.02191 7668 ft 277 kts 297°
2026-05-04 20:24 21.98962 114.00379 7362 ft 276 kts 297°
2026-05-04 20:24 21.99890 113.98576 7077 ft 274 kts 297°
2026-05-04 20:24 22.00827 113.96774 6790 ft 272 kts 297°
2026-05-04 20:24 22.01749 113.94985 6492 ft 272 kts 297°
2026-05-04 20:25 22.02663 113.93204 6195 ft 271 kts 297°
2026-05-04 20:25 22.03578 113.91434 5896 ft 270 kts 297°
2026-05-04 20:25 22.04476 113.89693 5606 ft 269 kts 297°
2026-05-04 20:25 22.05382 113.87928 5311 ft 268 kts 297°
2026-05-04 20:26 22.06286 113.86168 5040 ft 267 kts 298°
2026-05-04 20:26 22.07186 113.84418 4762 ft 266 kts 298°
2026-05-04 20:26 22.08084 113.82674 4479 ft 265 kts 298°
2026-05-04 20:26 22.08981 113.80931 4181 ft 265 kts 298°
2026-05-04 20:27 22.09878 113.79187 3891 ft 266 kts 300°
2026-05-04 20:27 22.11004 113.77607 3576 ft 267 kts 320°
2026-05-04 20:27 22.12569 113.76539 3310 ft 266 kts 336°
2026-05-04 20:27 22.14253 113.75702 3017 ft 266 kts 338°
2026-05-04 20:28 22.15910 113.74914 2985 ft 253 kts 339°
2026-05-04 20:28 22.17476 113.74165 2983 ft 239 kts 338°
2026-05-04 20:28 22.18942 113.73450 2995 ft 223 kts 337°
2026-05-04 20:28 22.20302 113.72774 2948 ft 208 kts 339°
2026-05-04 20:29 22.21665 113.72521 2692 ft 195 kts 18°
2026-05-04 20:29 22.22804 113.73193 2573 ft 186 kts 38°
2026-05-04 20:29 22.23866 113.73985 2404 ft 184 kts 38°
2026-05-04 20:29 22.24926 113.74769 2278 ft 183 kts 37°
2026-05-04 20:30 22.25948 113.75507 2120 ft 170 kts 41°
2026-05-04 20:30 22.26668 113.76424 1986 ft 159 kts 63°
2026-05-04 20:30 22.27129 113.77494 1856 ft 155 kts 71°
2026-05-04 20:30 22.27510 113.78584 1738 ft 155 kts 72°
2026-05-04 20:31 22.27865 113.79684 1620 ft 155 kts 72°
2026-05-04 20:31 22.28216 113.80788 1615 ft 155 kts 73°
2026-05-04 20:31 22.28560 113.81872 1554 ft 148 kts 72°
2026-05-04 20:31 22.28891 113.82912 1344 ft 146 kts 72°
2026-05-04 20:32 22.29223 113.83950 1168 ft 145 kts 73°
2026-05-04 20:32 22.29545 113.84979 988 ft 144 kts 71°
2026-05-04 20:32 22.29879 113.86005 780 ft 144 kts 72°
2026-05-04 20:32 22.30214 113.87023 594 ft 141 kts 73°
2026-05-04 20:33 22.30524 113.88025 401 ft 141 kts 73°
2026-05-04 20:33 22.30846 113.89025 240 ft 140 kts 72°
2026-05-04 20:33 22.31164 113.90015 58 ft 140 kts 73°
2026-05-04 20:33 22.31452 113.90919 40 ft 104 kts 71°
2026-05-04 20:34 22.31628 113.91465 41 ft 60 kts 71°
2026-05-04 20:34 22.31744 113.91826 41 ft 37 kts 71°
2026-05-04 20:34 22.31792 113.91999 41 ft 22 kts 81°
2026-05-04 20:34 22.31789 113.92131 42 ft 18 kts 100°
2026-05-04 20:35 22.31777 113.92209 42 ft 7 kts 100°
2026-05-04 20:35 22.31741 113.92249 41 ft 9 kts 170°
2026-05-04 20:35 22.31687 113.92207 39 ft 11 kts 241°
2026-05-04 20:35 22.31657 113.92122 41 ft 10 kts 251°
2026-05-04 20:36 22.31622 113.92051 41 ft 12 kts 217°
2026-05-04 20:36 22.31542 113.92051 41 ft 13 kts 161°
2026-05-04 20:36 22.31440 113.92090 41 ft 17 kts 160°
2026-05-04 20:36 22.31314 113.92137 41 ft 21 kts 161°
2026-05-04 20:37 22.31176 113.92188 41 ft 22 kts 161°
2026-05-04 20:37 22.31037 113.92240 40 ft 22 kts 161°
2026-05-04 20:37 22.30917 113.92284 40 ft 19 kts 161°
2026-05-04 20:37 22.30815 113.92322 40 ft 15 kts 161°
2026-05-04 20:38 22.30752 113.92352 40 ft 9 kts 141°
2026-05-04 20:38 22.30738 113.92409 40 ft 8 kts 73°
2026-05-04 20:38 22.30758 113.92471 40 ft 9 kts 70°
2026-05-04 20:38 22.30779 113.92533 40 ft 9 kts 70°
2026-05-04 20:39 22.30800 113.92598 40 ft 9 kts 71°
2026-05-04 20:39 22.30821 113.92665 40 ft 9 kts 71°
2026-05-04 20:39 22.30856 113.92723 40 ft 9 kts 39°
2026-05-04 20:39 22.30914 113.92758 40 ft 10 kts 26°
2026-05-04 20:40 22.30969 113.92785 40 ft 8 kts 19°
2026-05-04 20:40 22.31014 113.92772 40 ft 7 kts 311°
2026-05-04 20:40 22.31032 113.92740 40 ft 0 kts 297°
2026-05-04 20:40 22.31033 113.92737 40 ft 1 kts 296°
2026-05-04 20:41 22.31039 113.92724 40 ft 2 kts 296°
2026-05-04 20:41 22.31044 113.92714 40 ft 0 kts 296°
2026-05-04 20:42 22.22832 113.73214 2603 ft 0 kts 38°
2026-05-04 20:42 22.24407 113.74386 2338 ft 0 kts 37°
2026-05-04 20:42 22.27336 113.78067 1795 ft 0 kts 72°
2026-05-04 20:42 22.28735 113.82422 1450 ft 0 kts 72°
2026-05-04 20:43 22.28886 113.82896 1348 ft 0 kts 72°
2026-05-04 20:43 22.29052 113.83415 1263 ft 0 kts 72°
2026-05-04 20:43 22.29217 113.83932 1172 ft 0 kts 73°
2026-05-04 20:43 22.29430 113.84612 1057 ft 0 kts 72°
2026-05-04 20:44 22.29592 113.85125 966 ft 0 kts 71°